Current weather by "City, St" or "zip code"  
 

Current Conditions: Hobbs / Lea County, NM

A Few Clouds


91.0 F

Last Updated on Jul 3 2022, 2:50 pm MDT
Humidity: 26%
Wind Speed: E 15.0 G 21.9 mph
Barometer 30.02 in
Dewpoint: 51.8 F
Visibility: 10.00 mi
Precip: --
Heat Index: 88 F
Wind Chill: NA
Current conditions at:

Hobbs / Lea County, NM (KHOB)

Lat: 32.68333 Lon: 103.21667

Local Radar Image active severe weather and emergency alerts image image weather storm and storm spotter reports image weather observation monitoring service image
Local
Radar
Active
Alerts
Storm Reports Obs
Monitoring

Sign-up For Email & Text Message Weather Alert Notification Services



Advertise Here

Observation History for Hobbs / Lea County, NM


Time Wind
(mph)
Vis
(mi)
Weather Precip (in) Temperature (F) Relative
Humidity
Wind
Chill
(F)
Heat
Index
(F)
Pressure
Air Dwpt altimeter
(in)
sea level
(mb)
Rmks
2:50 pm MDT E 15.0 G 21.9 10.00 A Few Clouds -- 91.0 51.8 26% NA 88 30.02 M
1:50 pm MDT SE 15.0 G 23.0 10.00 Partly Cloudy -- 91.0 55.4 30% NA 89 30.05 M
12:50 pm MDT E 13.8 G 25.3 10.00 Partly Cloudy -- 90.0 55.4 31% NA 88 30.06 M
11:50 am MDT SE 17.3 G 24.2 10.00 Clear -- 88.0 57.2 35% NA 87 30.08 M
10:50 am MDT SE 15.0 G 23.0 10.00 Clear -- 86.0 59.0 40% NA 85 30.09 M
9:50 am MDT SE 11.5 10.00 Clear -- 84.0 59.0 43% NA 84 30.08 M
8:50 am MDT SE 16.1 10.00 Clear -- 79.0 59.0 51% NA NA 30.08 M
7:50 am MDT SE 15.0 G 21.9 10.00 Clear -- 77.0 59.0 54% NA NA 30.07 M
6:50 am MDT SE 6.9 10.00 Clear -- 70.0 57.2 64% NA NA 30.06 M
5:50 am MDT 10.00 Clear -- 66.0 57.2 73% NA NA 30.06 M
5:35 am MDT E 4.6 10.00 Fair -- 66.0 57.2 73% NA NA 30.06 M
5:15 am MDT SE 6.9 10.00 Fair -- 68.0 57.2 69% NA NA 30.05 M
4:55 am MDT SE 6.9 10.00 Fair -- 68.0 57.2 69% NA NA 30.06 M
4:35 am MDT SE 5.8 10.00 Fair -- 68.0 57.2 69% NA NA 30.05 M
4:15 am MDT SE 6.9 10.00 Fair -- 70.0 59.0 69% NA NA 30.05 M
3:55 am MDT SE 9.2 10.00 Fair -- 70.0 59.0 69% NA NA 30.04 M
3:35 am MDT SE 8.1 10.00 Fair -- 70.0 57.2 64% NA NA 30.04 M
3:15 am MDT SE 6.9 10.00 Fair -- 72.0 57.2 61% NA NA 30.04 M
2:55 am MDT SE 8.1 10.00 Fair -- 72.0 57.2 61% NA NA 30.04 M
2:35 am MDT SE 6.9 10.00 Fair -- 73.0 57.2 57% NA NA 30.04 M
2:15 am MDT SE 8.1 10.00 Fair -- 73.0 57.2 57% NA NA 30.04 M
1:55 am MDT S 8.1 10.00 Fair -- 75.0 57.2 54% NA NA 30.04 M
1:35 am MDT SE 8.1 10.00 Fair -- 75.0 57.2 54% NA NA 30.04 M
1:15 am MDT SE 8.1 10.00 Fair -- 75.0 57.2 54% NA NA 30.04 M

Regional Weather Observation


Seminole, Gaines County Airport, TX (KGNC)

Fair
94.0 F

Andrews County Airport, TX (KE11)

Fair
94.0 F

Artesia Municipal Airport, NM (KATS)

Fair
93.0 F

Carlsbad, Cavern City Air Terminal Airport, NM (KCNM)

A Few Clouds
95.0 F

Roswell International Air Center Airport, NM (KROW)

Fair
95.0 F

Midland, Midland Airpark, TX (KMDD)

Fair
94.0 F

Advertise Here


Advertise Here